TimeEST,TemperatureF,Dew PointF,Humidity,Sea Level PressureIn,VisibilityMPH,Wind Direction,Wind SpeedMPH,Gust SpeedMPH,PrecipitationIn,Events,Conditions,WindDirDegrees,DateUTC
12:56 AM,28.9,15.1,56,30.13,10.0,Calm,Calm,-,N/A,,Scattered Clouds,0,2013-03-04 05:56:00
1:56 AM,26.1,17.1,69,30.15,10.0,Calm,Calm,-,N/A,,Mostly Cloudy,0,2013-03-04 06:56:00
2:56 AM,26.1,17.1,69,30.14,10.0,Calm,Calm,-,N/A,,Mostly Cloudy,0,2013-03-04 07:56:00
3:56 AM,26.1,18.0,71,30.15,10.0,Calm,Calm,-,N/A,,Clear,0,2013-03-04 08:56:00
4:56 AM,25.0,17.1,72,30.15,10.0,Calm,Calm,-,N/A,,Clear,0,2013-03-04 09:56:00
5:56 AM,24.1,18.0,77,30.17,10.0,SE,4.6,-,N/A,,Scattered Clouds,130,2013-03-04 10:56:00
6:56 AM,24.8,17.6,74,30.16,10.0,East,3.5,-,N/A,,Partly Cloudy,100,2013-03-04 11:56:00
7:56 AM,27.0,21.0,78,30.17,9.0,SE,3.5,-,N/A,,Mostly Cloudy,140,2013-03-04 12:56:00
8:56 AM,28.0,21.0,75,30.17,10.0,SE,8.1,-,N/A,,Overcast,140,2013-03-04 13:56:00
9:56 AM,33.1,21.9,64,30.16,10.0,SSE,6.9,-,N/A,,Overcast,150,2013-03-04 14:56:00
10:56 AM,37.9,18.0,45,30.14,10.0,SE,10.4,-,N/A,,Overcast,140,2013-03-04 15:56:00
11:56 AM,39.9,19.9,45,30.13,10.0,SSE,9.2,-,N/A,,Overcast,160,2013-03-04 16:56:00
12:56 PM,41.0,18.0,40,30.10,10.0,SSE,8.1,-,N/A,,Overcast,150,2013-03-04 17:56:00
1:56 PM,42.1,19.0,40,30.06,10.0,SE,10.4,-,N/A,,Overcast,140,2013-03-04 18:56:00
2:56 PM,43.0,19.0,38,30.03,10.0,SE,11.5,-,N/A,,Overcast,140,2013-03-04 19:56:00
3:56 PM,44.1,17.1,34,30.01,10.0,SE,12.7,-,N/A,,Overcast,130,2013-03-04 20:56:00
4:56 PM,45.0,18.0,34,29.99,10.0,ESE,10.4,-,N/A,,Overcast,110,2013-03-04 21:56:00
5:56 PM,45.0,19.9,37,29.97,10.0,ESE,9.2,-,N/A,,Overcast,110,2013-03-04 22:56:00
6:56 PM,44.1,21.9,42,29.96,10.0,ESE,6.9,-,N/A,,Overcast,110,2013-03-04 23:56:00
7:56 PM,43.0,21.9,43,29.98,10.0,ESE,4.6,-,N/A,,Overcast,110,2013-03-05 00:56:00
8:56 PM,42.1,23.0,47,29.99,10.0,NE,3.5,-,N/A,,Overcast,50,2013-03-05 01:56:00
9:56 PM,43.0,24.1,47,29.97,10.0,East,5.8,-,N/A,,Overcast,90,2013-03-05 02:56:00
10:56 PM,43.0,24.1,47,29.96,10.0,East,5.8,-,N/A,,Overcast,90,2013-03-05 03:56:00
11:56 PM,44.1,25.0,47,29.94,10.0,ENE,3.5,-,N/A,,Overcast,60,2013-03-05 04:56:00